Location: Zingalaing
(23.1364°N, 94.0346°E)
Time: 07:17:20
(UTC+00:00)

Daily predictions for brighter satellites

Satellite Brightness Start Highest point End
(mag) Time Altitude Azimuth Time Altitude Azimuth Time Altitude Azimuth
CZ-2D R/B 3.3 12:00:04 10° SSE 12:03:50 54° ENE 12:07:36 10° N
CZ-4B R/B 3.7 12:03:09 10° NNW 12:05:54 24° WNW 12:08:35 10° SW
Aureole 2 Rocket 4.5 12:05:15 10° SW 12:07:37 23° WNW 12:10:03 10° NNW
Helios 1A Rocket 4.2 12:06:32 10° ESE 12:09:34 20° ENE 12:12:37 10° NNE
Cosmos 1937 Rocket 4.3 12:07:05 10° SSE 12:11:38 30° E 12:15:45 12° NE
Cosmos 1606 Rocket 4.5 12:07:51 10° NNW 12:12:08 53° W 12:16:27 10° S
Delta 168 3.9 12:10:10 10° W 12:12:56 30° SSW 12:15:51 10° SE
MOS 1 Rocket 4.1 12:11:37 10° N 12:15:43 48° WNW 12:19:53 10° SSW
Cosmos 1689 Rocket 2.5 12:14:46 10° N 12:17:34 57° WNW 12:20:20 10° SSW
Aureole 3 3.6 12:18:15 23° ENE 12:18:46 25° E 12:21:16 10° SE
SJ 16-02 2.5 12:15:46 10° SSW 12:19:58 44° WNW 12:24:10 10° N
SAR-Lupe-4 4.3 12:17:51 10° N 12:21:20 53° WNW 12:24:49 10° SSW
Cosmos 1538 Rocket 4.1 12:16:26 10° N 12:21:25 48° ENE 12:26:24 10° SSE
ARGOS 3.8 12:21:30 10° SE 12:26:04 30° ENE 12:30:39 10° NNE
Cosmos 2026 Rocket 3.9 12:28:41 10° S 12:34:36 60° E 12:40:37 10° NNE
Abrixas rocket 2.7 12:37:31 10° WNW 12:40:03 44° SW 12:41:06 27° S
Cosmos 44 4.2 12:35:46 10° SW 12:40:06 45° WNW 12:44:44 10° N
Cosmos 1703 3.6 12:36:34 10° SSW 12:40:25 65° W 12:44:17 10° N
Cosmos 2058 Rocket 4.0 12:38:48 10° NNW 12:43:09 51° W 12:47:30 10° SSW
Cosmos 1340 2.6 12:40:14 10° S 12:43:58 85° W 12:46:33 19° N
Cosmos 1346 Rocket 4.5 12:41:45 10° SSE 12:43:10 19° SE 12:43:10 19° SE
CZ-2C R/B 2.6 12:42:27 10° NNE 12:48:02 76° ESE 12:53:38 10° S
NOAA 15 4.5 12:42:58 10° SSE 12:48:12 87° ENE 12:53:27 10° NNW
USA 267 3.9 12:42:07 11° NNE 12:48:12 51° NW 12:54:28 10° WSW
Cosmos 1455 2.2 12:44:28 10° N 12:48:17 82° W 12:52:07 10° S
GPS 2-14 Rocket1 3.2 12:45:20 10° W 12:49:22 56° S 12:50:30 40° SE
Centaur D-1AR AC-48 2.6 12:36:19 10° W 12:49:52 76° S 12:51:44 37° E
SWIFT 2.7 12:50:29 10° W 12:54:40 57° S 12:55:33 46° SE
BREEZE-M DEB (TANK) 2.9 12:52:15 10° NW 12:55:41 85° NE 13:04:48 10° SE
Meteor 1-11 4.1 12:54:08 10° S 12:59:53 77° E 13:03:57 20° NNE
CZ-4 R/B 2.7 12:58:07 10° S 13:02:03 42° W 13:05:58 10° NNW
H-2A R/B 2.4 13:03:28 10° S 13:08:17 59° W 13:13:11 10° NNW
GEOS 3 Rocket 4.0 13:08:52 45° SE 13:08:52 45° SE 13:13:21 10° S
Mugunghwa Rocket 4.2 13:05:34 10° WNW 13:13:11 70° N 13:14:47 54° ENE
Okean-O 4.0 13:09:23 10° SSW 13:13:30 38° W 13:17:37 10° NNW
Cosmos 2278 Rocket 2.0 13:07:59 10° SSW 13:13:38 81° ESE 13:14:38 61° NE
Cosmos 1758 Rocket 4.1 13:11:58 10° SSW 13:16:15 57° W 13:17:34 40° NNW
Meteor 2-8 Rocket 4.3 13:11:38 10° N 13:17:44 84° E 13:23:51 10° S
BREEZE-M DEB (TANK) 4.0 13:16:17 10° SW 13:18:03 24° SW 13:18:03 24° SW
Hubble Space Telescope 2.5 13:20:30 10° WNW 13:22:47 27° NW 13:22:47 27° NW
CSL-04 Rocket 3.9 13:21:41 10° S 13:26:58 66° WSW 13:32:20 10° NNW
Cosmos 158 Rocket 4.2 13:24:53 10° NNW 13:30:14 72° WSW 13:35:35 10° S
Milstar 3 3.0 13:29:53 10° SW 13:38:09 57° SSE 13:38:18 57° SSE
DELTA 2 R/B (1) 4.4 13:41:56 10° WNW 13:46:33 47° WSW 13:46:33 47° WSW
Centaur AC-146 4.3 13:59:08 10° WSW 14:39:14 - E 14:00:18 25° WSW
ATLAS 2A CENTAUR R/B 4.2 14:28:48 10° WSW 14:50:03 56° SW 14:50:03 56° SW
ATLAS 3B CENTAUR R/B 4.2 21:00:25 47° E 21:00:25 47° E 21:10:15 10° ESE
Atlas Centaur 2 2.9 21:58:14 76° NE 21:58:14 76° NE 22:06:05 10° ENE
Cosmos 1844 Rocket 3.4 22:07:44 45° NE 22:08:27 47° ENE 22:13:47 10° SE
FALCON 9 R/B 2.4 22:09:17 59° NNE 22:09:17 59° NNE 22:12:22 10° ENE
CZ-3A R/B 3.8 22:05:17 56° W 22:09:01 89° S 22:18:16 10° E
Cosmos 2237 Rocket 3.5 22:11:26 10° S 22:16:37 38° ESE 22:21:48 10° NE
CZ-2C R/B 3.3 22:25:14 22° NE 22:25:14 22° NE 22:26:50 10° NE
Haruka 4.1 22:22:53 39° N 22:23:07 39° NNE 22:32:41 10° E
CZ-4B R/B 4.2 22:21:53 10° ESE 22:24:01 16° ENE 22:25:27 13° NE
IUS-7 SRM-1 4.1 22:34:13 30° ENE 22:34:13 30° ENE 22:36:44 10° ENE
SJ 16-02 2.4 22:34:38 26° NNE 22:36:35 43° ENE 22:40:45 10° SSE
Delta 198 3.9 22:41:57 44° SSE 22:41:57 44° SSE 22:44:46 10° ESE
Lacrosse 4 Rocket 4.0 22:40:14 10° SSE 22:43:23 21° ESE 22:46:35 10° NE
CZ-4B R/B 3.3 22:40:44 10° NNE 22:44:19 55° E 22:48:02 10° S
Fermi 4.5 22:46:52 42° SSW 22:46:52 42° SSW 22:50:37 10° SE
Tsikada Rocket 4.3 22:49:30 40° WSW 22:49:30 40° WSW 22:54:43 10° SSW
Cosmos 1980 3.6 22:43:36 10° SSW 22:49:15 89° WNW 22:54:55 10° NNE
IRIDIUM 104 4.2 22:44:26 10° S 22:49:36 70° W 22:54:48 10° N
Meteor 2-5 Rocket 3.8 22:50:10 40° NW 22:51:52 54° W 22:57:28 10° S
USA 267 3.7 22:48:42 10° SSE 22:54:45 41° SW 22:56:39 34° W
Envisat 4.4 22:50:39 10° NNE 22:55:23 39° E 23:00:06 10° SSE
OAO 3 Rocket 3.1 22:55:23 50° NW 22:56:34 77° NNE 23:01:13 10° ESE
H-2A R/B 2.6 22:52:35 10° S 22:56:04 39° SW 22:56:04 39° SW
IRIDIUM 114 4.3 22:53:40 10° SSW 22:58:44 54° W 23:03:50 10° N
H-2A R/B 3.0 22:58:01 10° NNE 23:01:43 67° ESE 23:05:25 10° S
GPS 2-17 Rocket1 3.4 23:03:30 32° WSW 23:05:17 56° S 23:09:46 10° E
Cosmos 44 3.8 23:04:38 35° WNW 23:06:14 44° WSW 23:11:14 10° S
SL-4 R/B 1.7 23:07:26 51° W 23:07:52 55° NW 23:11:37 10° NNE
ATLAS 2A CENTAUR R/B 4.1 23:05:09 12° SW 23:08:52 20° S 23:18:05 10° SE
Cosmos 1455 Rocket 3.2 23:04:50 10° SSW 23:09:02 46° W 23:13:14 10° N
Cosmos 540 Rocket 3.4 23:06:50 10° SSW 23:11:49 56° WNW 23:16:49 10° N
SKYMED 2 3.6 23:08:37 10° SSE 23:12:56 82° ENE 23:17:16 10° N
GPS 2-04 Rocket1 4.4 23:12:25 19° NNW 23:14:13 25° NNE 23:17:41 10° ENE
MOS 1 Rocket 4.1 23:09:55 10° SSE 23:15:03 59° ENE 23:19:56 10° N
IUS R/B (1) 1.6 23:14:55 46° WNW 23:15:22 55° NNW 23:17:30 10° ENE
ATLAS 3B CENTAUR R/B 4.4 23:09:49 22° W 23:16:55 53° SSW 23:35:54 10° SE
CENTAUR R/B 3.8 23:12:47 10° S 23:17:37 36° ESE 23:23:01 10° NE
Meteor 1-16 Rocket 4.4 23:12:22 10° S 23:18:09 84° E 23:24:04 10° N
PSLV R/B 4.3 23:18:13 10° NNE 23:22:12 67° E 23:26:14 10° S
Delta 2 Rocket 4.3 23:19:32 24° WNW 23:22:54 59° SSW 23:28:25 10° SE
ATLAS CENTAUR R/B 1.2 23:20:12 10° SSW 23:24:02 79° ESE 23:27:44 10° NNE
Meteor 1-24 Rocket 4.4 23:20:51 15° NW 23:24:48 33° W 23:29:52 10° SSW
Cosmos 990 Rocket 4.0 23:21:08 10° NNW 23:26:16 84° ENE 23:31:24 10° SSE
YAOGAN 6 2.5 23:24:05 10° N 23:27:47 84° W 23:31:27 10° SSW
USA 238 DEB 3.8 23:23:04 10° SSW 23:29:29 74° ESE 23:36:05 10° NNE
Cosmos 1953 2.6 23:25:43 10° SSW 23:29:31 43° W 23:33:19 10° N
USA 238 3.8 23:23:11 10° SSW 23:29:36 73° ESE 23:36:12 10° NNE
SEDSat Delta rocket 4.0 23:24:15 11° WSW 23:30:55 89° NNW 23:37:32 10° ENE
Cosmos 1844 4.5 23:27:16 17° NW 23:30:56 32° WSW 23:35:58 10° SSW
SJ-7 4.3 23:27:57 10° N 23:32:02 66° WNW 23:36:03 10° SSW
H-2A R/B 3.8 23:28:21 10° NNE 23:32:42 47° E 23:37:00 10° S
ERS-2 2.0 23:30:15 10° S 23:33:52 76° WSW 23:37:30 10° NNW
Cosmos 1908 3.2 23:34:05 10° SSW 23:37:48 55° W 23:41:31 10° N
Okean O Rocket 3.5 23:35:05 10° NNE 23:39:03 34° E 23:42:58 10° SSE
Aurora 2 Rocket 3.3 23:36:05 14° W 23:40:36 84° N 23:48:09 10° E
USA 307 3.2 23:36:48 10° WSW 23:40:51 44° NW 23:44:53 10° NNE
PSLV R/B 3.8 23:38:49 10° S 23:42:52 84° W 23:46:59 10° NNW
Cosmos 841 Rocket 4.3 23:39:51 10° SW 23:44:07 27° WNW 23:48:25 10° NNW
SMAP 3.6 23:40:47 10° NNE 23:45:24 65° ESE 23:50:00 10° S
SL-16 R/B 2.2 23:42:01 10° SSW 23:47:40 90° W 23:53:20 10° NNE
Spot 2 3.8 23:43:41 10° N 23:47:43 80° WNW 23:51:51 10° SSW
Atlas Centaur 2 3.4 23:40:51 13° W 23:48:02 54° N 23:56:23 10° ENE
USA 308 3.5 23:45:41 10° WSW 23:49:34 35° NW 23:53:27 10° NNE
Cosmos 1315 Rocket 4.5 23:46:02 10° SSE 23:49:40 37° E 23:53:17 10° NNE
USA 305 3.6 23:46:28 10° WSW 23:50:18 33° NW 23:54:09 10° NNE
Cosmos 1844 Rocket 4.3 23:49:28 11° WNW 23:51:49 14° W 23:54:31 10° SW
Cosmos 1602 Rocket 4.4 23:48:32 10° N 23:52:54 55° E 23:57:17 10° SSE
USA 276 2.3 23:51:47 10° NW 23:54:53 68° NE 23:57:58 10° SE
CZ-4B R/B 3.2 23:54:08 10° SW 23:56:00 14° W 23:57:55 10° WNW
